Weather History for New Orleans Lakefront, LA

Change the Weather History Date:

Saturday, May 25, 2013

  Actual Average Record
Temperature  
Mean Temperature 79 °F 79 °F  
Max Temperature 86 °F 87 °F 94 °F (1953)
Min Temperature 72 °F 70 °F 58 °F (1985)
Degree Days  
Heating Degree Days 0 0  
Month to date heating degree days 16 0  
Since 1 July heating degree days 1146 1279  
Cooling Degree Days 14 14  
Month to date cooling degree days 204 275  
Year to date cooling degree days 408 532  
Growing Degree Days 28 (Base 50)    
Moisture  
Dew Point 63 °F    
Average Humidity 62    
Maximum Humidity 73    
Minimum Humidity 51    
Precipitation  
Precipitation 0.00 in 0.16 in 1.43 in (2002)
Month to date precipitation 5.25 3.55  
Year to date precipitation 31.75 23.16  
Snow  
Snow 0.00 in - - ()
Month to date snowfall 0.0  
Since 1 July snowfall 0.0  
Snow Depth 0.00 in    
Sea Level Pressure  
Sea Level Pressure 30.16 in    
Wind  
Wind Speed 7 mph (East)    
Max Wind Speed 15 mph    
Max Gust Speed 18 mph    
Visibility 10 miles    
Events      
T = Trace of Precipitation, MM = Missing Value Source: NWS Daily Summary

Daily Weather History Graph

Daily Weather History Graph

Search for Another Location

Airport:

Trip Planner

Search our weather history database for the weather conditions in past years. The results will help you decide how hot, cold, wet, or windy it might be!

Date:

Astronomy

May. 25, 2013 Rise Set
Actual Time 6:01 AM CDT 7:53 PM CDT
Civil Twilight 5:34 AM CDT 8:19 PM CDT
Nautical Twilight 5:02 AM CDT 8:52 PM CDT
Astronomical Twilight 4:28 AM CDT 9:26 PM CDT
Moon 8:41 PM CDT (5/25) 6:27 AM CDT (5/25)
Length of Visible Light 14h 45m
Length of Day
13h 51m
Full, 100% of the Moon is Illuminated
May 25
Full
May 31
Last Quarter
Jun 8
New
Jun 16
First Quarter
Jun 23
Full

Hourly Weather History & Observations

Time (CDT) Temp. Heat Index Dew Point Humidity Pressure Visibility Wind Dir Wind Speed Gust Speed Precip Events Conditions
12:53 AM 79.0 °F - 63.0 °F 58% 30.13 in 10.0 mi ENE 12.7 mph - N/A   Clear
1:53 AM 78.1 °F - 62.1 °F 58% 30.12 in 10.0 mi ENE 16.1 mph - N/A   Clear
2:53 AM 77.0 °F - 61.0 °F 58% 30.12 in 10.0 mi ENE 15.0 mph - N/A   Clear
3:53 AM 75.9 °F - 60.1 °F 58% 30.13 in 10.0 mi ENE 15.0 mph - N/A   Clear
4:53 AM 75.0 °F - 60.1 °F 60% 30.14 in 10.0 mi ENE 15.0 mph - N/A   Clear
5:53 AM 73.9 °F - 60.1 °F 62% 30.16 in 10.0 mi ENE 16.1 mph - N/A   Clear
6:53 AM 73.9 °F - 61.0 °F 64% 30.18 in 10.0 mi ENE 16.1 mph - N/A   Clear
7:53 AM 75.0 °F - 61.0 °F 62% 30.20 in 10.0 mi ENE 16.1 mph - N/A   Clear
8:53 AM 75.9 °F - 62.1 °F 62% 30.22 in 10.0 mi East 13.8 mph - N/A   Clear
9:53 AM 79.0 °F - 63.0 °F 58% 30.21 in 10.0 mi ENE 13.8 mph - N/A   Clear
10:53 AM 80.1 °F 81.5 °F 63.0 °F 56% 30.21 in 10.0 mi East 13.8 mph - N/A   Clear
11:53 AM 80.1 °F 81.5 °F 63.0 °F 56% 30.21 in 10.0 mi East 13.8 mph - N/A   Clear
12:53 PM 82.0 °F 83.4 °F 64.0 °F 54% 30.20 in 10.0 mi East 13.8 mph - N/A   Clear
1:53 PM 82.9 °F 84.4 °F 64.0 °F 53% 30.19 in 10.0 mi ESE 9.2 mph - N/A   Clear
2:53 PM 82.9 °F 84.6 °F 64.9 °F 54% 30.17 in 10.0 mi East 9.2 mph - N/A   Clear
3:53 PM 82.9 °F 85.0 °F 66.0 °F 56% 30.16 in 10.0 mi East 6.9 mph - N/A   Clear
4:53 PM 82.9 °F 85.0 °F 66.0 °F 56% 30.15 in 10.0 mi East 9.2 mph - N/A   Clear
5:53 PM 82.9 °F 85.0 °F 66.0 °F 56% 30.14 in 10.0 mi ESE 10.4 mph - N/A   Clear
6:53 PM 81.0 °F 82.7 °F 64.9 °F 58% 30.12 in 10.0 mi ESE 11.5 mph - N/A   Clear
7:53 PM 80.1 °F 81.7 °F 64.0 °F 58% 30.13 in 10.0 mi SE 9.2 mph - N/A   Clear
8:53 PM 78.1 °F - 64.0 °F 62% 30.14 in 10.0 mi SE 6.9 mph - N/A   Clear
9:53 PM 77.0 °F - 64.0 °F 64% 30.15 in 10.0 mi SE 6.9 mph - N/A   Clear
10:53 PM 75.9 °F - 64.9 °F 69% 30.16 in 10.0 mi SE 6.9 mph - N/A   Clear
11:53 PM 75.0 °F - 66.9 °F 76% 30.14 in 10.0 mi SE 5.8 mph - N/A   Clear